Stündliche Wetter Ablovo

Heute, 17 Juni, Donnerstag

Zeit Temperatur Niederschläge Wind Luftdruck Luftfeuchtigkeit
00:00 +14°C° 0 mm 2 m/S 753 mmHg 82%
01:00 +14°C° 0 mm 2 m/S 753 mmHg 81%
02:00 +13°C° 0 mm 2 m/S 753 mmHg 80%
03:00 +12°C° 0 mm 2 m/S 754 mmHg 79%
04:00 +13°C° 0 mm 2 m/S 754 mmHg 78%
05:00 +14°C° 0 mm 2 m/S 754 mmHg 78%
06:00 +14°C° 0 mm 2 m/S 755 mmHg 77%
07:00 +16°C° 0 mm 2 m/S 755 mmHg 70%
08:00 +18°C° 0 mm 2 m/S 755 mmHg 63%
09:00 +20°C° 0 mm 2 m/S 756 mmHg 56%
10:00 +21°C° 0 mm 2 m/S 756 mmHg 52%
11:00 +23°C° 0 mm 2 m/S 756 mmHg 48%
12:00 +25°C° 0 mm 2 m/S 756 mmHg 45%
13:00 +25°C° 0 mm 2 m/S 756 mmHg 44%
14:00 +25°C° 0 mm 2 m/S 757 mmHg 44%
15:00 +26°C° 0 mm 3 m/S 756 mmHg 44%
16:00 +25°C° 0 mm 3 m/S 757 mmHg 49%
17:00 +23°C° 0 mm 4 m/S 757 mmHg 54%
18:00 +22°C° 0 mm 4 m/S 757 mmHg 60%
19:00 +20°C° 0 mm 4 m/S 757 mmHg 65%
20:00 +18°C° 0 mm 3 m/S 757 mmHg 70%
21:00 +16°C° 0 mm 3 m/S 758 mmHg 75%
22:00 +16°C° 0 mm 2 m/S 758 mmHg 76%
23:00 +15°C° 0 mm 2 m/S 758 mmHg 77%

Morgen, 18 Juni, Freitag

Zeit Temperatur Niederschläge Wind Luftdruck Luftfeuchtigkeit
00:00 +14°C° 0 mm 2 m/S 759 mmHg 78%
01:00 +14°C° 0 mm 2 m/S 759 mmHg 80%
02:00 +14°C° 0 mm 2 m/S 759 mmHg 81%
03:00 +13°C° 0 mm 2 m/S 759 mmHg 82%
04:00 +14°C° 0 mm 1 m/S 759 mmHg 80%
05:00 +15°C° 0 mm 1 m/S 760 mmHg 79%
06:00 +16°C° 0 mm 1 m/S 760 mmHg 78%
07:00 +18°C° 0 mm 1 m/S 760 mmHg 72%
08:00 +20°C° 0 mm 1 m/S 760 mmHg 67%
09:00 +21°C° 0 mm 2 m/S 760 mmHg 61%
10:00 +23°C° 0 mm 1 m/S 760 mmHg 57%
11:00 +24°C° 0 mm 1 m/S 760 mmHg 53%
12:00 +25°C° 0 mm 1 m/S 760 mmHg 49%
13:00 +25°C° 0 mm 1 m/S 760 mmHg 48%
14:00 +26°C° 0 mm 1 m/S 760 mmHg 47%
15:00 +26°C° 0 mm 1 m/S 760 mmHg 47%
16:00 +26°C° 0 mm 1 m/S 759 mmHg 53%
17:00 +25°C° 0 mm 1 m/S 759 mmHg 58%
18:00 +25°C° 0 mm 2 m/S 759 mmHg 64%
19:00 +23°C° 0 mm 1 m/S 759 mmHg 70%
20:00 +21°C° 0 mm 1 m/S 759 mmHg 76%
21:00 +19°C° 0 mm 1 m/S 759 mmHg 81%
22:00 +18°C° 0 mm 1 m/S 760 mmHg 83%
23:00 +18°C° 0 mm 1 m/S 760 mmHg 85%

übermorgen, 19 Juni, Samstag

Zeit Temperatur Niederschläge Wind Luftdruck Luftfeuchtigkeit
00:00 +16°C° 0 mm 1 m/S 760 mmHg 86%
01:00 +16°C° 0 mm 1 m/S 760 mmHg 87%
02:00 +15°C° 0 mm 1 m/S 760 mmHg 88%
03:00 +15°C° 0 mm 1 m/S 760 mmHg 89%
04:00 +16°C° 0 mm 1 m/S 760 mmHg 87%
05:00 +16°C° 0 mm 1 m/S 760 mmHg 84%
06:00 +18°C° 0 mm 1 m/S 760 mmHg 82%
07:00 +20°C° 0 mm 1 m/S 760 mmHg 77%
08:00 +21°C° 0 mm 1 m/S 760 mmHg 73%
09:00 +23°C° 0 mm 2 m/S 760 mmHg 68%
10:00 +24°C° 0 mm 2 m/S 760 mmHg 64%
11:00 +24°C° 0 mm 2 m/S 760 mmHg 61%
12:00 +25°C° 0 mm 2 m/S 760 mmHg 58%
13:00 +26°C° 0 mm 2 m/S 759 mmHg 57%
14:00 +26°C° 0 mm 2 m/S 759 mmHg 55%
15:00 +26°C° 0 mm 2 m/S 759 mmHg 54%
16:00 +26°C° 0 mm 2 m/S 759 mmHg 57%
17:00 +26°C° 0 mm 2 m/S 758 mmHg 61%
18:00 +25°C° 0 mm 2 m/S 758 mmHg 64%
19:00 +23°C° 0 mm 2 m/S 758 mmHg 70%
20:00 +20°C° 0 mm 2 m/S 758 mmHg 76%
21:00 +20°C° 0 mm 1 m/S 758 mmHg 82%
22:00 +19°C° 0 mm 1 m/S 758 mmHg 84%
23:00 +17°C° 0 mm 2 m/S 758 mmHg 86%

20 Juni, Sonntag

Zeit Temperatur Niederschläge Wind Luftdruck Luftfeuchtigkeit
00:00 +16°C° 0 mm 2 m/S 758 mmHg 88%
01:00 +16°C° 0 mm 2 m/S 758 mmHg 89%
02:00 +16°C° 0 mm 1 m/S 758 mmHg 90%
03:00 +15°C° 0 mm 1 m/S 758 mmHg 91%
04:00 +16°C° 0 mm 1 m/S 758 mmHg 88%
05:00 +18°C° 0 mm 1 m/S 758 mmHg 86%
06:00 +19°C° 0 mm 1 m/S 758 mmHg 83%
07:00 +20°C° 0 mm 1 m/S 758 mmHg 78%
08:00 +22°C° 0 mm 1 m/S 758 mmHg 73%
09:00 +24°C° 0 mm 1 m/S 758 mmHg 67%
10:00 +25°C° 0 mm 1 m/S 758 mmHg 64%
11:00 +26°C° 0 mm 2 m/S 758 mmHg 60%
12:00 +27°C° 0 mm 2 m/S 758 mmHg 56%
13:00 +27°C° 0 mm 2 m/S 757 mmHg 55%
14:00 +27°C° 0 mm 2 m/S 757 mmHg 54%
15:00 +28°C° 0 mm 2 m/S 757 mmHg 54%
16:00 +28°C° 0 mm 2 m/S 757 mmHg 57%
17:00 +27°C° 0 mm 1 m/S 757 mmHg 60%
18:00 +27°C° 0 mm 1 m/S 756 mmHg 64%
19:00 +25°C° 0 mm 1 m/S 756 mmHg 70%
20:00 +23°C° 0 mm 1 m/S 756 mmHg 76%
21:00 +21°C° 0 mm 1 m/S 756 mmHg 82%
22:00 +21°C° 0 mm 1 m/S 756 mmHg 84%
23:00 +20°C° 0 mm 1 m/S 756 mmHg 86%

21 Juni, Montag

Zeit Temperatur Niederschläge Wind Luftdruck Luftfeuchtigkeit
00:00 +19°C° 0 mm 1 m/S 756 mmHg 87%
01:00 +19°C° 0 mm 1 m/S 756 mmHg 88%
02:00 +18°C° 0 mm 1 m/S 756 mmHg 88%
03:00 +16°C° 0 mm 0 m/S 756 mmHg 88%
04:00 +17°C° 0 mm 0 m/S 756 mmHg 87%
05:00 +18°C° 0 mm 0 m/S 756 mmHg 85%
06:00 +19°C° 0 mm 0 m/S 756 mmHg 83%
07:00 +22°C° 0 mm 1 m/S 756 mmHg 78%
08:00 +24°C° 0 mm 1 m/S 756 mmHg 73%
09:00 +25°C° 0 mm 1 m/S 756 mmHg 68%
10:00 +26°C° 0 mm 1 m/S 756 mmHg 65%
11:00 +27°C° 0 mm 2 m/S 756 mmHg 63%
12:00 +28°C° 0 mm 2 m/S 756 mmHg 60%
13:00 +28°C° 0 mm 2 m/S 755 mmHg 60%
14:00 +28°C° 0 mm 2 m/S 755 mmHg 60%
15:00 +28°C° 0 mm 2 m/S 755 mmHg 60%
16:00 +28°C° 0 mm 1 m/S 755 mmHg 63%
17:00 +28°C° 0 mm 1 m/S 755 mmHg 67%
18:00 +27°C° 0 mm 1 m/S 755 mmHg 71%
19:00 +26°C° 0 mm 1 m/S 755 mmHg 76%
20:00 +24°C° 0 mm 1 m/S 755 mmHg 81%
21:00 +23°C° 0 mm 1 m/S 755 mmHg 86%
22:00 +22°C° 0 mm 1 m/S 755 mmHg 87%
23:00 +22°C° 0 mm 1 m/S 755 mmHg 88%

22 Juni, Dienstag

Zeit Temperatur Niederschläge Wind Luftdruck Luftfeuchtigkeit
00:00 +21°C° 0 mm 1 m/S 755 mmHg 89%
01:00 +21°C° 0 mm 1 m/S 755 mmHg 90%
02:00 +20°C° 0 mm 1 m/S 755 mmHg 90%
03:00 +20°C° 0 mm 1 m/S 755 mmHg 91%
04:00 +21°C° 0 mm 1 m/S 755 mmHg 90%
05:00 +21°C° 0 mm 1 m/S 755 mmHg 88%
06:00 +22°C° 0 mm 1 m/S 755 mmHg 86%
07:00 +24°C° 0 mm 1 m/S 755 mmHg 80%
08:00 +25°C° 0 mm 1 m/S 755 mmHg 75%
09:00 +27°C° 0 mm 2 m/S 755 mmHg 69%
10:00 +28°C° 0 mm 2 m/S 755 mmHg 65%
11:00 +29°C° 0 mm 2 m/S 755 mmHg 61%
12:00 +30°C° 0 mm 2 m/S 755 mmHg 57%
13:00 +30°C° 0 mm 2 m/S 755 mmHg 55%
14:00 +31°C° 0 mm 2 m/S 755 mmHg 54%
15:00 +31°C° 0 mm 2 m/S 755 mmHg 52%
16:00 +31°C° 0 mm 2 m/S 755 mmHg 56%
17:00 +30°C° 0 mm 1 m/S 755 mmHg 60%
18:00 +30°C° 0 mm 1 m/S 755 mmHg 64%
19:00 +28°C° 0 mm 1 m/S 755 mmHg 69%
20:00 +26°C° 0 mm 1 m/S 755 mmHg 74%
21:00 +24°C° 0 mm 1 m/S 755 mmHg 79%
22:00 +24°C° 0 mm 1 m/S 755 mmHg 81%
23:00 +23°C° 0 mm 1 m/S 755 mmHg 83%
Mehr zeigen

Wir brauchen deine Erlaubnis

Meteoprog und unser Service Anbieter werden persönliche Daten aufbewahren, so wie Cookies, Geräte Bezeichnung oder ähnliche Technologien von deinem Gerät und Prozess, so wie Persönliche Daten Inhalte und Werbungen, genauso wie social Media und den Verkehr zu analysieren.

  • Aufbewahrung und/oder Zugang zu deiner Geräte Informationen.

    Cookies, Geräte Bezeichnung oder andere Informationen, können aufbewahrt oder Zugang zu deinem Gerät erhalten, für den Grund, der oben angegeben wird.

  • Personalisierte Werbung und Inhalte, Messungen, Einblick in das Publikum und Produkt Entwicklung.

    Werbungen und Inhalte können personalisiert werden, basierend auf ein Profil. Mehr Daten können besser personalisierte Werbungen und Inhalte hinzufügen. Werbung und Inhalte können gezeigt und gemessen werden. Einblicke über das Publikum, welche die Werbung gesehen haben und den Inhalt, können abgeleitet werden. So wie Daten können genutzt werden, um es zu verbessern oder die Benutzer Erfahrung zu verbessern das System und die Software.

Wenn du “Ich stimme zu” klickst, erlaubst du uns, die Cookies zu benutzen die Geräte Bezeichnung, den Web oder ähnliche Technologien zu benutzen. Deine Settings, können in deinem Gerät bei deinem Browser geändert werden.

Für den bestimmten Zweck, berechtigten Interessen beruhen darauf, mehr als auf den Inhalt. Du kannst mehr darüber in unseren Privaten und Cookie Politik lesen.